Location: Middleville
(41.0560°N, 74.8630°W)
Time: 14:18:34
(UTC-05:00)

Hubble Space Telescope - Visible Passes

Search period start: 21 February 2018 00:00
Search period end: 03 March 2018 00:00
Orbit: 537 x 541 km, 28.5° (Epoch: 20 February)

Date Brightness Start Highest point End Pass type
(mag) Time Alt. Az. Time Alt. Az. Time Alt. Az.
21 Feb 3.2 05:33:25 10° SSW 05:35:18 13° S 05:37:11 10° SE visible
22 Feb 3.2 05:22:49 10° SSW 05:24:53 14° S 05:26:58 10° SE visible
23 Feb 3.0 05:12:56 12° SSW 05:14:30 14° S 05:16:41 10° SE visible
24 Feb 3.0 05:03:15 13° SSW 05:04:06 14° S 05:06:19 10° SSE visible
25 Feb 3.0 04:53:33 14° S 04:53:41 14° S 04:55:53 10° SSE visible
26 Feb 3.1 04:43:51 13° S 04:43:51 13° S 04:45:22 10° SSE visible
27 Feb 3.3 04:34:10 11° SSE 04:34:10 11° SSE 04:34:46 10° SSE visible
